星链-30271 (STARLINK-30271 )

导读 | 星芒AI

STARLINK-30271 是由 SpaceX 发射的星链(Starlink)卫星之一,属于其低轨卫星互联网星座计划的一部分。该卫星旨在为全球用户提供高速、低延迟的互联网服务,特别是在偏远和网络基础设施薄弱的地区。它运行在约 550 公里的低地球轨道上,采用先进的通信技术,支持宽带连接。作为星链计划的组成部分,STARLINK-30271 有助于扩大全球互联网覆盖范围,提升通信效率,并推动数字包容性发展。

基本信息
目录编号:
57669
目录名称:
STARLINK-30271
国际标识:
2023-124G
轨道中心:
EARTH
卫星名称:
星链-30271
卫星全名:
星链-30271 (STARLINK-30271 )
卫星状态:
在轨 (已飞行800 天)
发射日期:
2023-08-22 UTC
国别 :
美国 (US)
星等 :
--
轨道信息
数据来源 国际轨道数据
星历时间: 2025-10-30T11:33:56+0800
15小时前
查看轨道信息
半长轴: 6853.393km
偏心率: 0.0000942
轨道倾角: 53.161°
近地点辐角 96.773°
升交点赤经 93.402°
平近点角 263.338°
近地点: 474.612km
远地点: 475.904km
周期: 94.106分钟
每日圈数: 15.301863
详细信息
固有亮度:
5
最大亮度:
0.3
卫星平台:
Starlink v2.0 mini
覆盖范围:
全球
运营商:
太空探索技术公司
运营商所在国:
美国
制造商(研发单位):
太空探索技术公司
制造商所在国:
美国
使用方式:
暂无
卫星简介
星链(Starlink)计划是由太空探索技术公司(SpaceX)提出的一个巨型低轨卫星互联网星座项目,计划在2019年至2024年间在太空搭建由约1.2万颗卫星组成的“星链”网络,其中1584颗将部署在地球上空550千米处的近地轨道,并从2020年开始工作。该卫星仍在工作。
2D轨道图
3D轨道图
轨道高度分析图
轨道倾角分析图
轨道综合分析图
查看轨道综合分析图